sat.trackr.live / text

‹ back to catalog

STARLINK-37250

NORAD 68609 · 2026-073H

PAYLOAD ACTIVE UNKNOWN

§ Identity

Operator
Country
US
Launch date
2026-04-07
Launch site
AFWTR
Launch vehicle
Mass (kg)
RCS (m²)

Purposes: comms

External: N2YO · Heavens-Above · Gunter

§ Orbital elements

Epoch: 2026-09-19T20:01:11.313408Z

Period
93.91 min
Inclination
97.2853°
Eccentricity
0.0002617
Mean motion
15.33450290 rev/d
Perigee alt
463.7 km
Apogee alt
467.3 km
Semi-major
6,843.7 km
B*
4.5514e-4
RAAN
100.7845°
Arg perigee
93.7394°
Mean anomaly
266.4148°
Rev number
2,563

§ Raw data

STARLINK-372501 68609U 26073H   26262.83415872  .00014651  00000+0  45514-3 0  99912 68609  97.2853 100.7845 0002617  93.7394 266.4148 15.33450290 25630

JSON: /api/v1/satellites/68609 · /tle

For live sub-satellite position, see the globe view (requires WebGL).

§ Visibility from observer

Set your observer location to see the next 7 days of passes ≥ 10°. The values pass through the URL so the page stays shareable.

No JS? Fill the form by hand. The geolocation button needs JavaScript.